Location: Mount Graham
(32.7016°N, 109.8912°W)
Time: 07:10:23
(UTC-07:00)

Daily predictions for brighter satellites

Satellite Brightness Start Highest point End
(mag) Time Altitude Azimuth Time Altitude Azimuth Time Altitude Azimuth
SL-16 R/B 4.3 19:43:15 10° SW 19:48:19 34° WNW 19:53:26 10° N
Cosmos 1726 Rocket 3.8 19:47:31 10° N 19:51:56 76° W 19:56:18 10° S
CZ-2D R/B 3.3 19:54:33 10° SSE 19:58:26 81° ENE 20:02:21 10° N
CZ-2C R/B 2.0 20:01:10 12° ESE 20:02:40 20° ENE 20:04:28 10° NNE
Okean 2 4.2 19:59:27 10° SSW 20:03:32 55° W 20:07:38 10° N
Cosmos 1743 4.2 20:00:50 10° NNW 20:04:24 39° W 20:07:57 10° SSW
Cosmos 1891 Rocket 4.5 20:03:02 10° N 20:09:03 63° E 20:15:00 10° SSE
Cosmos 1602 Rocket 3.5 20:05:45 10° S 20:10:12 78° E 20:14:40 10° N
FENGYUN 3A 3.7 20:07:08 10° SSE 20:12:30 89° ENE 20:17:55 10° NNW
USA 186 1.6 20:10:41 10° S 20:13:27 68° W 20:16:02 10° NNW
Cosmos 2058 Rocket 4.1 20:14:58 10° NNW 20:19:09 46° W 20:23:17 10° SSW
Lacrosse 4 Rocket 1.4 20:17:35 10° S 20:21:29 52° ESE 20:25:27 10° NE
ALOS 2.7 20:17:55 10° S 20:22:32 64° W 20:27:10 10° NNW
Cosmos 1812 Rocket 3.8 20:21:44 10° N 20:26:03 52° E 20:29:29 16° SSE
ISS 0.2 20:27:22 10° NW 20:28:22 11° NNW 20:29:21 10° NNW
Cosmos 1943 Rocket 4.2 20:26:57 10° NNE 20:29:01 12° NE 20:31:04 10° ENE
deb Centaur AC-2 4.4 20:25:41 10° W 20:30:16 62° S 20:34:16 18° ESE
H-2A R/B 2.1 20:30:32 16° SSE 20:33:48 66° ENE 20:38:09 10° N
SeaSat 1 4.2 20:32:37 13° E 20:35:15 19° NE 20:38:41 10° N
Atlas Centaur 2 2.8 20:28:59 10° W 20:35:42 75° S 20:42:49 14° E
Cosmos 1943 3.2 20:31:21 10° SSW 20:37:00 89° ESE 20:42:43 10° NNE
Cosmos 1992 Rocket 4.3 20:32:15 10° N 20:37:20 50° ENE 20:40:27 22° SE
Cosmos 2228 4.2 20:33:45 10° NNW 20:37:56 43° W 20:42:05 10° SSW
Tsikada Rocket 4.3 20:34:10 10° S 20:40:34 75° W 20:46:57 10° N
H-2A R/B 4.4 20:39:50 10° SSW 20:43:24 33° W 20:47:00 10° NNW
deb Chang Zheng 4 4.2 20:41:17 10° N 20:45:35 59° WNW 20:49:51 10° SSW
Cosmos 1238 4.5 20:45:01 12° SSW 20:47:53 64° W 20:50:52 10° N
Cosmos 1939 Rocket 2.8 20:48:42 25° SSE 20:51:06 81° ENE 20:55:14 10° N
Meteor 2-12 Rocket 4.3 20:47:19 10° N 20:53:24 79° E 20:57:47 20° S
USA 81 4.3 20:50:19 10° N 20:55:28 52° E 20:57:54 29° SE
CZ-4B R/B 3.8 20:51:24 10° NNE 20:56:25 49° E 20:59:09 25° SSE
Cosmos 1346 Rocket 2.7 20:55:11 33° SSE 20:56:44 59° E 21:00:37 10° NNE
ATLAS 5 CENTAUR R/B 2.9 20:54:33 10° SSW 20:56:00 16° S 20:56:00 16° S
Milstar 3 Cent rocket 3.9 20:52:35 10° W 20:58:42 23° SW 21:01:24 17° S
CZ-4 SHROUD 3.2 20:58:19 54° ESE 20:58:44 63° ENE 21:01:52 10° N
PSLV R/B 3.2 20:59:04 55° ESE 20:59:20 58° ENE 21:02:24 10° N
Mugunghwa Rocket 4.3 20:53:28 10° WSW 20:59:22 43° S 21:02:08 28° ESE
Cosmos 1190 Rocket 4.2 20:55:13 10° SSW 21:00:29 73° WNW 21:05:49 10° NNE
ARGOS 4.3 20:59:31 24° E 21:01:12 28° ENE 21:05:46 10° NNE
SPOT 5 2.6 21:00:16 35° SE 21:01:59 66° ENE 21:06:16 10° N
Cosmos 1953 Rocket 3.5 21:00:19 30° SSE 21:02:20 65° E 21:06:45 10° NNE
CZ-3C R/B 3.6 21:00:18 10° WSW 21:04:20 15° SSW 21:04:49 15° SSW
Cosmos 1140 Rocket 4.2 21:06:27 32° ESE 21:06:48 32° E 21:11:24 10° NE
ATLAS 3B R/B 3.4 20:59:30 10° SW 21:07:08 63° WNW 21:14:39 10° NNE
Cosmos 2142 Rocket 4.5 21:01:26 10° N 21:07:38 65° E 21:10:41 31° SSE
MetOp-B 4.3 21:05:40 33° SE 21:07:53 59° ENE 21:13:09 10° N
Delta 168 4.5 21:05:56 10° SW 21:07:21 17° SSW 21:07:21 17° SSW
Cosmos 1634 Rocket 3.9 21:08:30 10° N 21:14:42 78° E 21:17:50 31° SSE
H-2A R/B 3.7 21:14:20 16° ENE 21:14:54 17° ENE 21:18:00 10° NNE
Meteor 1-21 4.2 21:14:16 31° SSE 21:17:01 65° E 21:22:46 10° NNE
Cosmos 676 Rocket 4.0 21:13:07 12° SSW 21:18:01 86° WNW 21:23:22 10° NNE
YAOGAN 6 2.9 21:18:24 51° ENE 21:18:24 51° ENE 21:21:59 10° N
Cosmos 1607 4.1 21:16:52 30° SSE 21:19:34 49° ESE 21:25:32 10° NE
SPOT 1/Viking Rocket 3.7 21:22:34 45° ESE 21:23:48 58° ENE 21:28:51 10° N
Cosmos 2369 Rocket 2.2 21:18:39 10° NNW 21:24:18 80° WSW 21:26:23 40° S
Cosmos 1932 4.5 21:22:48 10° SSW 21:28:58 79° WNW 21:35:13 10° NNE
DEBRIS 3.7 21:26:37 10° WNW 21:28:40 28° W 21:28:40 28° W
SL-08 RB Rocket 4.3 21:29:36 40° ENE 21:29:40 40° ENE 21:33:54 10° N
Cosmos 1766 3.5 21:27:05 10° N 21:30:43 55° ENE 21:30:43 55° ENE
Cosmos 2279 Rocket 4.0 21:26:59 10° N 21:33:10 62° E 21:34:51 46° SE
NOAA 11 4.4 21:32:52 47° ESE 21:33:49 53° ENE 21:39:04 10° N
Cosmos 1758 Rocket 3.9 21:34:20 38° SW 21:35:48 60° W 21:40:07 10° N
Envisat 4.0 21:37:30 25° SSW 21:39:55 40° W 21:44:41 10° NNW
SL-27 R/B 3.5 21:44:18 41° NNW 21:44:18 41° NNW 21:46:45 10° N
CZ-4C R/B 3.7 21:48:42 21° ENE 21:48:42 21° ENE 21:51:00 10° NE
USA 238 DEB 4.0 21:47:55 10° SW 21:54:58 68° WNW 22:02:02 10° NNE
USA 238 4.0 21:48:01 10° SW 21:55:05 69° WNW 22:02:08 10° NNE
DMSP B5D2-2 4.5 21:54:42 10° NNE 21:59:02 48° ENE 21:59:02 48° ENE
Cosmos 2180 Rocket 4.4 21:55:58 10° N 22:02:19 90° E 22:03:30 62° S
COSMOS 2406 3.5 22:03:21 38° SW 22:05:31 66° WNW 22:11:14 10° NNE
DELTA 2 DEB (DPAF) 4.5 22:09:56 64° NNW 22:09:56 64° NNW 22:13:47 10° NNW
CZ-4C R/B 4.3 22:11:59 49° NNW 22:11:59 49° NNW 22:14:59 10° NNW
Cosmos 2084 4.3 22:07:02 10° NNW 22:10:11 49° N 22:10:11 49° N
SeaSat 1 3.0 22:12:24 47° WSW 22:12:24 47° WSW 22:17:10 10° NW
Cosmos 1943 Rocket 2.1 22:07:47 10° NNW 22:13:21 81° WSW 22:13:25 81° WSW
Landsat 7 4.2 22:20:31 62° NW 22:20:31 62° NW 22:24:34 10° NNW
Cosmos 1656 Rocket 4.1 22:14:27 10° N 22:19:38 51° NE 22:19:38 51° NE
Cosmos 2208 Rocket 4.2 22:19:30 10° NNW 22:23:55 64° N 22:23:55 64° N
Atlas Centaur 2 3.0 22:18:01 10° W 22:25:26 58° SSW 22:25:27 58° SSW
NOSS 3-2 (C) 3.7 22:30:29 56° ENE 22:30:29 56° ENE 22:35:42 10° NE
Cosmos 1953 4.0 22:26:17 10° NNW 22:28:40 31° NW 22:28:40 31° NW
Terra 2.6 22:36:49 50° NNW 22:36:49 50° NNW 22:40:24 10° NNW
Cosmos 1092 Rocket 3.9 22:36:22 83° WSW 22:36:28 83° W 22:42:46 10° N
ARGOS 4.5 22:41:02 30° WSW 22:41:17 30° W 22:46:01 10° NW
H-2A R/B 3.1 22:54:58 39° WNW 22:54:58 39° WNW 22:58:43 10° NNW
USA 234 3.4 23:11:48 64° W 23:11:48 64° W 23:17:34 10° NW
NOSS 3-2 (A) 4.2 23:10:04 42° W 23:11:11 46° NW 23:17:25 10° NNE
Cosmos 1655 Rocket 4.3 23:18:06 64° NNW 23:18:06 64° NNW 23:23:29 10° N
Timation 2 Rocket 4.3 23:22:07 72° N 23:22:07 72° N 23:28:14 10° NNE
Cosmos 2026 Rocket 4.4 23:24:08 55° NW 23:24:08 55° NW 23:29:11 10° N
CZ-4C R/B 3.7 23:33:48 28° WNW 23:34:30 29° NW 23:39:32 10° N
Cosmos 2344 3.5 23:45:48 85° NNW 23:45:48 85° NNW 23:54:02 10° NNE
